Location: Bessat
(45.8735°N, 1.9924°E)
Time: 03:31:22
(UTC+00:00)

SeaSat 1 - Pass Details

Date: 11 May 2021
Orbit: 744 x 747 km, 108.0° (Epoch: 14 June)

Event Time Altitude Azimuth Distance (km) Brightness Sun altitude
Rises 23:03:02 0° 39° (NE) 3,199 6.3 -25.2°
Reaches altitude 10° 23:05:46 10° 54° (NE) 2,270 5.2 -25.3°
Enters shadow 23:08:33 21° 87° (E) 1,619 4.1 -25.4°
